Simultaneous Nadir Overpasses (SNOs) Predictions

Prediction of SNOs between GOES-16 and AQUA Satellite Orbit:

Table of predicted SNOs for the next 14.0 days since TLE Epoch: 11/29/2019
Index Date Time (GOES-16) GOES-16 Lat,Lon AQUA Lat,Lon Distance(km) Time Diff (sec)
1 11/30/2019 18:32:28 -0.00, -75.22 0.10, -74.62 67.58 80
2 12/02/2019 18:20:17 0.01, -75.23 0.79, -71.67 405.65 80
3 12/03/2019 06:44:13 -0.01, -75.24 0.31, -76.83 180.60 80
4 12/05/2019 06:29:21 -0.01, -75.26 -0.32, -73.87 158.65 80
5 12/05/2019 18:53:23 0.01, -75.27 -0.81, -79.05 430.08 80
6 12/07/2019 06:17:09 -0.02, -75.29 -0.95, -70.91 498.60 80
7 12/07/2019 18:41:11 0.01, -75.31 -0.18, -76.09 89.99 80
8 12/09/2019 18:26:20 0.01, -75.34 0.46, -73.13 250.68 80
9 12/10/2019 06:50:15 -0.00, -75.35 0.63, -78.29 334.87 80
10 12/12/2019 06:35:23 0.00, -75.39 -0.01, -75.33 5.96 80




NCC Satellite Simultaneous Nadir Overpasses (SNOs) Prediction Service
